"Sample Date","Sample Time","Sensor Name","Sample Value","Units","Flow Rate","Sample Interval","Sample Volume","Laser Status","Number Channels","Micron Size 0","Counts/Channel 0","Micron Size 1","Counts/Channel 1","Micron Size 2","Counts/Channel 2","Micron Size 3","Counts/Channel 3","Micron Size 4","Counts/Channel 4","Micron Size 5","Counts/Channel 5","Micron Size 6","Counts/Channel 6","Micron Size 7","Counts/Channel 7","Micron Size 8","Counts/Channel 8","Micron Size 9","Counts/Channel 9","Micron Size 10","Counts/Channel 10","Micron Size 11","Counts/Channel 11","Micron Size 12","Counts/Channel 12","Micron Size 13","Counts/Channel 13","Micron Size 14","Counts/Channel 14","Micron Size 15","Counts/Channel 15","Micron Size 16","Counts/Channel 16","Micron Size 17","Counts/Channel 17","Micron Size 18","Counts/Channel 18","Micron Size 19","Counts/Channel 19","Micron Size 20","Counts/Channel 20","Micron Size 21","Counts/Channel 21","Micron Size 22","Counts/Channel 22","Micron Size 23","Counts/Channel 23","Micron Size 24","Counts/Channel 24","Micron Size 25","Counts/Channel 25","Micron Size 26","Counts/Channel 26","Micron Size 27","Counts/Channel 27","Micron Size 28","Counts/Channel 28","Micron Size 29","Counts/Channel 29","Micron Size 30","Counts/Channel 30","Micron Size 31","Counts/Channel 31"
"07/07/06","18:00:01","AMMA06",37833.000,"cc",28315.313,6.00,2831.532,1,6,0.100,19480.000,0.200,14456.000,0.300,2728.000,0.500,751.000,1.000,418.000,5.000,0
"07/07/06","18:00:07","AMMA06",37640.000,"cc",28367.291,6.00,2836.729,1,6,0.100,19566.000,0.200,14327.000,0.300,2727.000,0.500,656.000,1.000,364.000,5.000,0
"07/07/06","18:00:13","AMMA06",36854.000,"cc",28250.186,6.00,2825.019,1,6,0.100,19305.000,0.200,14128.000,0.300,2538.000,0.500,545.000,1.000,338.000,5.000,0
"07/07/06","18:00:19","AMMA06",36437.000,"cc",28349.400,6.00,2834.940,1,6,0.100,18678.000,0.200,14375.000,0.300,2521.000,0.500,515.000,1.000,348.000,5.000,0
"07/07/06","18:00:25","AMMA06",35246.000,"cc",28286.557,6.00,2828.656,1,6,0.100,18352.000,0.200,13804.000,0.300,2371.000,0.500,454.000,1.000,265.000,5.000,0
"07/07/06","18:00:31","AMMA06",36164.000,"cc",28343.594,6.00,2834.360,1,6,0.100,18665.000,0.200,14221.000,0.300,2439.000,0.500,512.000,1.000,327.000,5.000,0
"07/07/06","18:00:37","AMMA06",35441.000,"cc",28269.840,6.00,2826.984,1,6,0.100,18211.000,0.200,14049.000,0.300,2349.000,0.500,508.000,1.000,324.000,5.000,0
"07/07/06","18:00:43","AMMA06",36041.000,"cc",28346.881,6.00,2834.688,1,6,0.100,18956.000,0.200,14058.000,0.300,2270.000,0.500,466.000,1.000,291.000,5.000,0
"07/07/06","18:00:49","AMMA06",36497.000,"cc",28313.188,6.00,2831.319,1,6,0.100,19232.000,0.200,14207.000,0.300,2324.000,0.500,458.000,1.000,276.000,5.000,0
"07/07/06","18:00:55","AMMA06",35589.000,"cc",28319.811,6.00,2831.981,1,6,0.100,18691.000,0.200,13997.000,0.300,2245.000,0.500,400.000,1.000,255.000,5.000,1.000
"07/07/06","18:01:01","AMMA06",35410.000,"cc",28289.307,6.00,2828.931,1,6,0.100,18446.000,0.200,13984.000,0.300,2302.000,0.500,421.000,1.000,257.000,5.000,0
"07/07/06","18:01:07","AMMA06",36194.000,"cc",28367.084,6.00,2836.709,1,6,0.100,19056.000,0.200,13975.000,0.300,2409.000,0.500,493.000,1.000,261.000,5.000,0
"07/07/06","18:01:13","AMMA06",36977.000,"cc",28267.188,6.00,2826.719,1,6,0.100,19376.000,0.200,14325.000,0.300,2422.000,0.500,551.000,1.000,303.000,5.000,0
"07/07/06","18:01:19","AMMA06",36505.000,"cc",28326.375,6.00,2832.638,1,6,0.100,19205.000,0.200,14097.000,0.300,2400.000,0.500,483.000,1.000,320.000,5.000,0
"07/07/06","18:01:25","AMMA06",44611.000,"cc",28412.426,6.00,2841.243,1,6,0.100,25692.000,0.200,14922.000,0.300,2844.000,0.500,756.000,1.000,397.000,5.000,0
"07/07/06","18:01:31","AMMA06",39204.000,"cc",28228.373,6.00,2822.837,1,6,0.100,22272.000,0.200,14097.000,0.300,2136.000,0.500,434.000,1.000,265.000,5.000,0
"07/07/06","18:01:37","AMMA06",40535.000,"cc",28302.469,6.00,2830.247,1,6,0.100,21051.000,0.200,14795.000,0.300,3207.000,0.500,1026.000,1.000,456.000,5.000,0
"07/07/06","18:01:43","AMMA06",44394.000,"cc",28315.746,6.00,2831.575,1,6,0.100,24468.000,0.200,15242.000,0.300,3148.000,0.500,996.000,1.000,540.000,5.000,0
"07/07/06","18:01:49","AMMA06",48696.000,"cc",28365.668,6.00,2836.567,1,6,0.100,27764.000,0.200,15899.000,0.300,3396.000,0.500,1114.000,1.000,523.000,5.000,0
"07/07/06","18:01:55","AMMA06",40568.000,"cc",28349.322,6.00,2834.932,1,6,0.100,21965.000,0.200,14773.000,0.300,2747.000,0.500,709.000,1.000,374.000,5.000,0
"07/07/06","18:02:01","AMMA06",37928.000,"cc",28311.742,6.00,2831.174,1,6,0.100,20551.000,0.200,14281.000,0.300,2395.000,0.500,438.000,1.000,262.000,5.000,1.000
"07/07/06","18:02:07","AMMA06",37676.000,"cc",28313.348,6.00,2831.335,1,6,0.100,20347.000,0.200,14315.000,0.300,2389.000,0.500,378.000,1.000,247.000,5.000,0
"07/07/06","18:02:13","AMMA06",39012.000,"cc",28300.389,6.00,2830.039,1,6,0.100,20405.000,0.200,14715.000,0.300,2801.000,0.500,724.000,1.000,367.000,5.000,0
"07/07/06","18:02:19","AMMA06",38271.000,"cc",28312.098,6.00,2831.210,1,6,0.100,20424.000,0.200,14375.000,0.300,2565.000,0.500,592.000,1.000,315.000,5.000,0
"07/07/06","18:02:25","AMMA06",42214.000,"cc",28323.926,6.00,2832.393,1,6,0.100,22946.000,0.200,15198.000,0.300,2938.000,0.500,744.000,1.000,388.000,5.000,0
"07/07/06","18:02:31","AMMA06",41963.000,"cc",28323.736,6.00,2832.374,1,6,0.100,23743.000,0.200,14737.000,0.300,2575.000,0.500,571.000,1.000,337.000,5.000,0
"07/07/06","18:02:37","AMMA06",37924.000,"cc",28387.447,6.00,2838.745,1,6,0.100,20718.000,0.200,14008.000,0.300,2371.000,0.500,516.000,1.000,311.000,5.000,0
"07/07/06","18:02:43","AMMA06",39557.000,"cc",28298.496,6.00,2829.850,1,6,0.100,20829.000,0.200,14807.000,0.300,2825.000,0.500,690.000,1.000,406.000,5.000,0
"07/07/06","18:02:49","AMMA06",40762.000,"cc",28271.313,6.00,2827.131,1,6,0.100,20985.000,0.200,15125.000,0.300,3265.000,0.500,922.000,1.000,465.000,5.000,0
"07/07/06","18:02:55","AMMA06",44430.000,"cc",28284.375,6.00,2828.438,1,6,0.100,24276.000,0.200,15583.000,0.300,3220.000,0.500,894.000,1.000,457.000,5.000,0
"07/07/06","18:03:01","AMMA06",45633.000,"cc",28346.600,6.00,2834.660,1,6,0.100,24697.000,0.200,15817.000,0.300,3560.000,0.500,1052.000,1.000,507.000,5.000,0
"07/07/06","18:03:07","AMMA06",46256.000,"cc",28351.219,6.00,2835.122,1,6,0.100,25546.000,0.200,15987.000,0.300,3355.000,0.500,887.000,1.000,481.000,5.000,0
"07/07/06","18:03:13","AMMA06",38461.000,"cc",28309.574,6.00,2830.958,1,6,0.100,20168.000,0.200,14822.000,0.300,2642.000,0.500,517.000,1.000,312.000,5.000,0
"07/07/06","18:03:19","AMMA06",38014.000,"cc",28335.065,6.00,2833.507,1,6,0.100,19782.000,0.200,14934.000,0.300,2504.000,0.500,473.000,1.000,321.000,5.000,0
"07/07/06","18:03:25","AMMA06",37327.000,"cc",28298.238,6.00,2829.824,1,6,0.100,19073.000,0.200,14779.000,0.300,2557.000,0.500,565.000,1.000,353.000,5.000,0
"07/07/06","18:03:31","AMMA06",36640.000,"cc",28290.182,6.00,2829.018,1,6,0.100,18613.000,0.200,14542.000,0.300,2621.000,0.500,497.000,1.000,367.000,5.000,0
"07/07/06","18:03:37","AMMA06",36421.000,"cc",28317.490,6.00,2831.749,1,6,0.100,18556.000,0.200,14505.000,0.300,2572.000,0.500,471.000,1.000,317.000,5.000,0
"07/07/06","18:03:43","AMMA06",38715.000,"cc",28263.941,6.00,2826.394,1,6,0.100,19887.000,0.200,15035.000,0.300,2781.000,0.500,613.000,1.000,399.000,5.000,0
"07/07/06","18:03:49","AMMA06",42776.000,"cc",28373.754,6.00,2837.376,1,6,0.100,22680.000,0.200,15785.000,0.300,3021.000,0.500,817.000,1.000,473.000,5.000,0
"07/07/06","18:03:55","AMMA06",38503.000,"cc",28342.246,6.00,2834.225,1,6,0.100,19997.000,0.200,14908.000,0.300,2713.000,0.500,550.000,1.000,335.000,5.000,0
"07/07/06","18:04:01","AMMA06",39243.000,"cc",28314.502,6.00,2831.450,1,6,0.100,20049.000,0.200,15037.000,0.300,2962.000,0.500,745.000,1.000,450.000,5.000,0
"07/07/06","18:04:07","AMMA06",38656.000,"cc",28299.486,6.00,2829.949,1,6,0.100,19617.000,0.200,15015.000,0.300,2900.000,0.500,707.000,1.000,417.000,5.000,0
"07/07/06","18:04:13","AMMA06",37204.000,"cc",28312.547,6.00,2831.255,1,6,0.100,18797.000,0.200,15044.000,0.300,2576.000,0.500,474.000,1.000,313.000,5.000,0
"07/07/06","18:04:19","AMMA06",37419.000,"cc",28360.027,6.00,2836.003,1,6,0.100,19303.000,0.200,14841.000,0.300,2504.000,0.500,468.000,1.000,303.000,5.000,0
"07/07/06","18:04:25","AMMA06",36088.000,"cc",28337.250,6.00,2833.725,1,6,0.100,18294.000,0.200,14688.000,0.300,2462.000,0.500,375.000,1.000,269.000,5.000,0
"07/07/06","18:04:31","AMMA06",37350.000,"cc",28294.852,6.00,2829.485,1,6,0.100,18689.000,0.200,15052.000,0.300,2681.000,0.500,570.000,1.000,358.000,5.000,0
"07/07/06","18:04:37","AMMA06",37695.000,"cc",28329.775,6.00,2832.978,1,6,0.100,19489.000,0.200,14937.000,0.300,2568.000,0.500,422.000,1.000,279.000,5.000,0
"07/07/06","18:04:43","AMMA06",37632.000,"cc",28295.914,6.00,2829.592,1,6,0.100,19625.000,0.200,14661.000,0.300,2564.000,0.500,449.000,1.000,333.000,5.000,0
"07/07/06","18:04:49","AMMA06",36711.000,"cc",28315.057,6.00,2831.506,1,6,0.100,18833.000,0.200,14721.000,0.300,2466.000,0.500,418.000,1.000,273.000,5.000,0
"07/07/06","18:04:55","AMMA06",37574.000,"cc",28312.488,6.00,2831.249,1,6,0.100,19516.000,0.200,14709.000,0.300,2612.000,0.500,435.000,1.000,302.000,5.000,0
"07/07/06","18:05:01","AMMA06",38720.000,"cc",28332.270,6.00,2833.227,1,6,0.100,19758.000,0.200,15286.000,0.300,2759.000,0.500,555.000,1.000,362.000,5.000,0
"07/07/06","18:05:07","AMMA06",37843.000,"cc",28302.436,6.00,2830.244,1,6,0.100,18852.000,0.200,14997.000,0.300,2969.000,0.500,619.000,1.000,406.000,5.000,0
"07/07/06","18:05:13","AMMA06",36656.000,"cc",28322.762,6.00,2832.276,1,6,0.100,18375.000,0.200,14687.000,0.300,2677.000,0.500,577.000,1.000,340.000,5.000,0
"07/07/06","18:05:19","AMMA06",36574.000,"cc",28315.893,6.00,2831.589,1,6,0.100,18163.000,0.200,14714.000,0.300,2761.000,0.500,557.000,1.000,379.000,5.000,0
"07/07/06","18:05:25","AMMA06",36281.000,"cc",28329.256,6.00,2832.926,1,6,0.100,18147.000,0.200,14716.000,0.300,2627.000,0.500,450.000,1.000,341.000,5.000,0
"07/07/06","18:05:31","AMMA06",36462.000,"cc",28288.660,6.00,2828.866,1,6,0.100,18677.000,0.200,14417.000,0.300,2599.000,0.500,460.000,1.000,309.000,5.000,0
"07/07/06","18:05:37","AMMA06",35726.000,"cc",28308.328,6.00,2830.833,1,6,0.100,17991.000,0.200,14514.000,0.300,2448.000,0.500,489.000,1.000,284.000,5.000,0
"07/07/06","18:05:43","AMMA06",35809.000,"cc",28329.301,6.00,2832.930,1,6,0.100,18054.000,0.200,14512.000,0.300,2516.000,0.500,423.000,1.000,304.000,5.000,0
"07/07/06","18:05:49","AMMA06",36460.000,"cc",28321.211,6.00,2832.121,1,6,0.100,18686.000,0.200,14258.000,0.300,2707.000,0.500,498.000,1.000,311.000,5.000,0
"07/07/06","18:05:55","AMMA06",36327.000,"cc",28334.305,6.00,2833.431,1,6,0.100,18340.000,0.200,14754.000,0.300,2484.000,0.500,436.000,1.000,312.000,5.000,1.000
"07/07/06","18:06:01","AMMA06",36160.000,"cc",28322.041,6.00,2832.204,1,6,0.100,18399.000,0.200,14587.000,0.300,2469.000,0.500,401.000,1.000,304.000,5.000,0
"07/07/06","18:06:07","AMMA06",36522.000,"cc",28322.168,6.00,2832.217,1,6,0.100,18205.000,0.200,14780.000,0.300,2627.000,0.500,542.000,1.000,368.000,5.000,0
"07/07/06","18:06:13","AMMA06",36731.000,"cc",28309.955,6.00,2830.996,1,6,0.100,18807.000,0.200,14486.000,0.300,2568.000,0.500,554.000,1.000,316.000,5.000,0
"07/07/06","18:06:19","AMMA06",37664.000,"cc",28261.397,6.00,2826.140,1,6,0.100,19702.000,0.200,14826.000,0.300,2420.000,0.500,449.000,1.000,267.000,5.000,0
"07/07/06","18:06:25","AMMA06",37982.000,"cc",28333.941,6.00,2833.394,1,6,0.100,19684.000,0.200,14819.000,0.300,2578.000,0.500,578.000,1.000,323.000,5.000,0
"07/07/06","18:06:31","AMMA06",37152.000,"cc",28332.106,6.00,2833.211,1,6,0.100,18964.000,0.200,14812.000,0.300,2562.000,0.500,526.000,1.000,288.000,5.000,0
"07/07/06","18:06:37","AMMA06",35806.000,"cc",28354.752,6.00,2835.475,1,6,0.100,18408.000,0.200,14302.000,0.300,2365.000,0.500,434.000,1.000,297.000,5.000,0
"07/07/06","18:06:43","AMMA06",36552.000,"cc",28288.027,6.00,2828.803,1,6,0.100,18874.000,0.200,14366.000,0.300,2433.000,0.500,574.000,1.000,305.000,5.000,0
"07/07/06","18:06:49","AMMA06",35812.000,"cc",28258.223,6.00,2825.823,1,6,0.100,18313.000,0.200,14324.000,0.300,2375.000,0.500,508.000,1.000,292.000,5.000,0
"07/07/06","18:06:55","AMMA06",37336.000,"cc",28301.234,6.00,2830.124,1,6,0.100,19833.000,0.200,14224.000,0.300,2472.000,0.500,486.000,1.000,321.000,5.000,0
"07/07/06","18:07:01","AMMA06",38699.000,"cc",28383.424,6.00,2838.343,1,6,0.100,20243.000,0.200,14630.000,0.300,2754.000,0.500,669.000,1.000,403.000,5.000,0
"07/07/06","18:07:07","AMMA06",37171.000,"cc",28336.309,6.00,2833.631,1,6,0.100,19427.000,0.200,14406.000,0.300,2504.000,0.500,497.000,1.000,337.000,5.000,0
"07/07/06","18:07:13","AMMA06",40406.000,"cc",28269.805,6.00,2826.981,1,6,0.100,22073.000,0.200,14832.000,0.300,2576.000,0.500,585.000,1.000,340.000,5.000,0
"07/07/06","18:07:19","AMMA06",36494.000,"cc",28319.998,6.00,2832.000,1,6,0.100,19098.000,0.200,14204.000,0.300,2423.000,0.500,491.000,1.000,277.000,5.000,1.000
"07/07/06","18:07:25","AMMA06",35884.000,"cc",28270.889,6.00,2827.089,1,6,0.100,18682.000,0.200,14103.000,0.300,2352.000,0.500,472.000,1.000,275.000,5.000,0
"07/07/06","18:07:31","AMMA06",35365.000,"cc",28340.967,6.00,2834.097,1,6,0.100,18218.000,0.200,14101.000,0.300,2328.000,0.500,460.000,1.000,258.000,5.000,0
"07/07/06","18:07:37","AMMA06",37543.000,"cc",28335.301,6.00,2833.530,1,6,0.100,20241.000,0.200,14316.000,0.300,2291.000,0.500,433.000,1.000,262.000,5.000,0
"07/07/06","18:07:43","AMMA06",36092.000,"cc",28315.697,6.00,2831.570,1,6,0.100,19023.000,0.200,14049.000,0.300,2353.000,0.500,394.000,1.000,273.000,5.000,0
"07/07/06","18:07:49","AMMA06",39486.000,"cc",28330.084,6.00,2833.009,1,6,0.100,21516.000,0.200,14643.000,0.300,2459.000,0.500,545.000,1.000,323.000,5.000,0
"07/07/06","18:07:55","AMMA06",37173.000,"cc",28319.863,6.00,2831.987,1,6,0.100,19655.000,0.200,14255.000,0.300,2451.000,0.500,501.000,1.000,311.000,5.000,0
"07/07/06","18:08:01","AMMA06",35477.000,"cc",28278.543,6.00,2827.855,1,6,0.100,18487.000,0.200,13940.000,0.300,2358.000,0.500,420.000,1.000,272.000,5.000,0
"07/07/06","18:08:07","AMMA06",35877.000,"cc",28268.565,6.00,2826.857,1,6,0.100,18589.000,0.200,14154.000,0.300,2364.000,0.500,484.000,1.000,286.000,5.000,0
"07/07/06","18:08:13","AMMA06",35020.000,"cc",28288.691,6.00,2828.869,1,6,0.100,18147.000,0.200,13918.000,0.300,2226.000,0.500,443.000,1.000,286.000,5.000,0
"07/07/06","18:08:19","AMMA06",35187.000,"cc",28359.029,6.00,2835.903,1,6,0.100,18215.000,0.200,14048.000,0.300,2221.000,0.500,420.000,1.000,283.000,5.000,0
"07/07/06","18:08:25","AMMA06",35417.000,"cc",28397.799,6.00,2839.780,1,6,0.100,18276.000,0.200,14036.000,0.300,2388.000,0.500,435.000,1.000,282.000,5.000,0
"07/07/06","18:08:31","AMMA06",35884.000,"cc",28314.961,6.00,2831.496,1,6,0.100,18527.000,0.200,14320.000,0.300,2317.000,0.500,452.000,1.000,268.000,5.000,0
"07/07/06","18:08:37","AMMA06",36206.000,"cc",28319.795,6.00,2831.980,1,6,0.100,18836.000,0.200,14279.000,0.300,2330.000,0.500,467.000,1.000,294.000,5.000,0
"07/07/06","18:08:43","AMMA06",36649.000,"cc",28317.940,6.00,2831.794,1,6,0.100,18948.000,0.200,14301.000,0.300,2566.000,0.500,528.000,1.000,306.000,5.000,0
"07/07/06","18:08:49","AMMA06",36088.000,"cc",28319.315,6.00,2831.932,1,6,0.100,18553.000,0.200,14103.000,0.300,2556.000,0.500,555.000,1.000,321.000,5.000,0
"07/07/06","18:08:55","AMMA06",36386.000,"cc",28298.119,6.00,2829.812,1,6,0.100,18773.000,0.200,14373.000,0.300,2465.000,0.500,480.000,1.000,295.000,5.000,0
"07/07/06","18:09:01","AMMA06",35130.000,"cc",28287.934,6.00,2828.794,1,6,0.100,18297.000,0.200,13857.000,0.300,2217.000,0.500,437.000,1.000,322.000,5.000,0
"07/07/06","18:09:07","AMMA06",35492.000,"cc",28273.184,6.00,2827.319,1,6,0.100,18223.000,0.200,14300.000,0.300,2243.000,0.500,445.000,1.000,281.000,5.000,0
"07/07/06","18:09:13","AMMA06",35645.000,"cc",28282.705,6.00,2828.271,1,6,0.100,18366.000,0.200,14182.000,0.300,2343.000,0.500,461.000,1.000,293.000,5.000,0
"07/07/06","18:09:19","AMMA06",35288.000,"cc",28316.660,6.00,2831.666,1,6,0.100,18324.000,0.200,13940.000,0.300,2325.000,0.500,438.000,1.000,261.000,5.000,0
"07/07/06","18:09:25","AMMA06",36225.000,"cc",28337.184,6.00,2833.719,1,6,0.100,19011.000,0.200,14096.000,0.300,2368.000,0.500,481.000,1.000,269.000,5.000,0
"07/07/06","18:09:31","AMMA06",37125.000,"cc",28313.549,6.00,2831.355,1,6,0.100,19179.000,0.200,14497.000,0.300,2534.000,0.500,586.000,1.000,329.000,5.000,0
"07/07/06","18:09:37","AMMA06",37221.000,"cc",28324.441,6.00,2832.444,1,6,0.100,18937.000,0.200,14599.000,0.300,2656.000,0.500,649.000,1.000,380.000,5.000,0
"07/07/06","18:09:43","AMMA06",35841.000,"cc",28305.166,6.00,2830.517,1,6,0.100,18373.000,0.200,14344.000,0.300,2369.000,0.500,448.000,1.000,307.000,5.000,0
"07/07/06","18:09:49","AMMA06",36613.000,"cc",28319.998,6.00,2832.000,1,6,0.100,18505.000,0.200,14567.000,0.300,2646.000,0.500,571.000,1.000,324.000,5.000,0
"07/07/06","18:09:55","AMMA06",36852.000,"cc",28351.469,6.00,2835.147,1,6,0.100,18903.000,0.200,14628.000,0.300,2461.000,0.500,534.000,1.000,326.000,5.000,0
"07/07/06","18:10:01","AMMA06",36530.000,"cc",28333.690,6.00,2833.369,1,6,0.100,18974.000,0.200,14353.000,0.300,2391.000,0.500,521.000,1.000,291.000,5.000,0
"07/07/06","18:10:07","AMMA06",37963.000,"cc",28286.803,6.00,2828.680,1,6,0.100,19154.000,0.200,14933.000,0.300,2812.000,0.500,708.000,1.000,356.000,5.000,0
"07/07/06","18:10:13","AMMA06",40368.000,"cc",28341.981,6.00,2834.198,1,6,0.100,20100.000,0.200,15511.000,0.300,3264.000,0.500,990.000,1.000,503.000,5.000,0
"07/07/06","18:10:19","AMMA06",39190.000,"cc",28309.287,6.00,2830.929,1,6,0.100,20693.000,0.200,14840.000,0.300,2687.000,0.500,649.000,1.000,321.000,5.000,0
"07/07/06","18:10:25","AMMA06",37476.000,"cc",28320.934,6.00,2832.094,1,6,0.100,19203.000,0.200,14712.000,0.300,2641.000,0.500,596.000,1.000,324.000,5.000,0
"07/07/06","18:10:31","AMMA06",37119.000,"cc",28303.123,6.00,2830.313,1,6,0.100,19062.000,0.200,14678.000,0.300,2510.000,0.500,559.000,1.000,310.000,5.000,0
"07/07/06","18:10:37","AMMA06",40857.000,"cc",28357.328,6.00,2835.733,1,6,0.100,21856.000,0.200,15072.000,0.300,2882.000,0.500,709.000,1.000,338.000,5.000,0
"07/07/06","18:10:43","AMMA06",40339.000,"cc",28292.713,6.00,2829.272,1,6,0.100,20836.000,0.200,15330.000,0.300,2961.000,0.500,773.000,1.000,439.000,5.000,0
"07/07/06","18:10:49","AMMA06",38914.000,"cc",28340.137,6.00,2834.014,1,6,0.100,20515.000,0.200,14779.000,0.300,2673.000,0.500,571.000,1.000,376.000,5.000,0
"07/07/06","18:10:55","AMMA06",36807.000,"cc",28289.010,6.00,2828.901,1,6,0.100,19038.000,0.200,14401.000,0.300,2528.000,0.500,526.000,1.000,314.000,5.000,0
"07/07/06","18:11:01","AMMA06",35606.000,"cc",28266.695,6.00,2826.670,1,6,0.100,17985.000,0.200,14323.000,0.300,2460.000,0.500,524.000,1.000,314.000,5.000,0
"07/07/06","18:11:07","AMMA06",36529.000,"cc",28316.371,6.00,2831.637,1,6,0.100,18798.000,0.200,14282.000,0.300,2592.000,0.500,524.000,1.000,333.000,5.000,0
"07/07/06","18:11:13","AMMA06",36015.000,"cc",28356.004,6.00,2835.601,1,6,0.100,18450.000,0.200,14337.000,0.300,2472.000,0.500,470.000,1.000,286.000,5.000,0
"07/07/06","18:11:19","AMMA06",35889.000,"cc",28345.859,6.00,2834.586,1,6,0.100,18265.000,0.200,14392.000,0.300,2514.000,0.500,438.000,1.000,280.000,5.000,0
"07/07/06","18:11:25","AMMA06",35249.000,"cc",28293.424,6.00,2829.343,1,6,0.100,17882.000,0.200,14252.000,0.300,2460.000,0.500,398.000,1.000,257.000,5.000,0
"07/07/06","18:11:31","AMMA06",36075.000,"cc",28321.695,6.00,2832.170,1,6,0.100,18310.000,0.200,14526.000,0.300,2518.000,0.500,434.000,1.000,287.000,5.000,0
"07/07/06","18:11:37","AMMA06",36290.000,"cc",28302.133,6.00,2830.213,1,6,0.100,18810.000,0.200,14321.000,0.300,2428.000,0.500,466.000,1.000,265.000,5.000,0
"07/07/06","18:11:43","AMMA06",37199.000,"cc",28299.395,6.00,2829.940,1,6,0.100,18637.000,0.200,15002.000,0.300,2656.000,0.500,554.000,1.000,350.000,5.000,0
"07/07/06","18:11:49","AMMA06",35627.000,"cc",28312.662,6.00,2831.266,1,6,0.100,17898.000,0.200,14485.000,0.300,2545.000,0.500,420.000,1.000,279.000,5.000,0
"07/07/06","18:11:55","AMMA06",35438.000,"cc",28376.443,6.00,2837.645,1,6,0.100,17730.000,0.200,14588.000,0.300,2396.000,0.500,433.000,1.000,291.000,5.000,0
"07/07/06","18:12:01","AMMA06",36876.000,"cc",28357.320,6.00,2835.732,1,6,0.100,18299.000,0.200,14623.000,0.300,2935.000,0.500,622.000,1.000,397.000,5.000,0
"07/07/06","18:12:07","AMMA06",40047.000,"cc",28290.494,6.00,2829.050,1,6,0.100,20995.000,0.200,15003.000,0.300,2932.000,0.500,719.000,1.000,398.000,5.000,0
"07/07/06","18:12:13","AMMA06",38244.000,"cc",28306.904,6.00,2830.691,1,6,0.100,19342.000,0.200,15078.000,0.300,2829.000,0.500,605.000,1.000,390.000,5.000,0
"07/07/06","18:12:19","AMMA06",36028.000,"cc",28291.766,6.00,2829.177,1,6,0.100,18079.000,0.200,14506.000,0.300,2687.000,0.500,451.000,1.000,305.000,5.000,0
"07/07/06","18:12:25","AMMA06",38562.000,"cc",28359.959,6.00,2835.996,1,6,0.100,19623.000,0.200,15262.000,0.300,2839.000,0.500,491.000,1.000,347.000,5.000,0
"07/07/06","18:12:31","AMMA06",42669.000,"cc",28307.606,6.00,2830.761,1,6,0.100,21907.000,0.200,15973.000,0.300,3415.000,0.500,897.000,1.000,477.000,5.000,0
"07/07/06","18:12:37","AMMA06",38957.000,"cc",28296.039,6.00,2829.604,1,6,0.100,19364.000,0.200,15214.000,0.300,3136.000,0.500,774.000,1.000,469.000,5.000,0
"07/07/06","18:12:43","AMMA06",40768.000,"cc",28300.096,6.00,2830.010,1,6,0.100,20159.000,0.200,15601.000,0.300,3484.000,0.500,1033.000,1.000,491.000,5.000,0
"07/07/06","18:12:49","AMMA06",38419.000,"cc",28323.436,6.00,2832.344,1,6,0.100,19799.000,0.200,14932.000,0.300,2778.000,0.500,561.000,1.000,349.000,5.000,0
"07/07/06","18:12:55","AMMA06",36210.000,"cc",28293.695,6.00,2829.370,1,6,0.100,18010.000,0.200,14668.000,0.300,2652.000,0.500,512.000,1.000,368.000,5.000,0
"07/07/06","18:13:01","AMMA06",39075.000,"cc",28297.518,6.00,2829.752,1,6,0.100,19836.000,0.200,15055.000,0.300,2960.000,0.500,738.000,1.000,486.000,5.000,0
"07/07/06","18:13:07","AMMA06",36970.000,"cc",28364.354,6.00,2836.436,1,6,0.100,18519.000,0.200,14724.000,0.300,2780.000,0.500,588.000,1.000,359.000,5.000,0
"07/07/06","18:13:13","AMMA06",37695.000,"cc",28326.871,6.00,2832.687,1,6,0.100,19582.000,0.200,14627.000,0.300,2600.000,0.500,543.000,1.000,343.000,5.000,0
"07/07/06","18:13:19","AMMA06",38599.000,"cc",28304.080,6.00,2830.408,1,6,0.100,19501.000,0.200,15042.000,0.300,3014.000,0.500,647.000,1.000,395.000,5.000,0
"07/07/06","18:13:25","AMMA06",37852.000,"cc",28280.867,6.00,2828.087,1,6,0.100,18851.000,0.200,15081.000,0.300,2903.000,0.500,662.000,1.000,355.000,5.000,0
"07/07/06","18:13:31","AMMA06",40339.000,"cc",28288.307,6.00,2828.831,1,6,0.100,20379.000,0.200,15639.000,0.300,3163.000,0.500,748.000,1.000,410.000,5.000,0
"07/07/06","18:13:37","AMMA06",40916.000,"cc",28404.389,6.00,2840.439,1,6,0.100,20982.000,0.200,15511.000,0.300,3191.000,0.500,781.000,1.000,451.000,5.000,0
"07/07/06","18:13:43","AMMA06",44952.000,"cc",28346.025,6.00,2834.603,1,6,0.100,24535.000,0.200,16184.000,0.300,3194.000,0.500,665.000,1.000,374.000,5.000,0
"07/07/06","18:13:49","AMMA06",39675.000,"cc",28280.807,6.00,2828.081,1,6,0.100,20170.000,0.200,15220.000,0.300,3143.000,0.500,715.000,1.000,427.000,5.000,0
"07/07/06","18:13:55","AMMA06",37977.000,"cc",28298.656,6.00,2829.866,1,6,0.100,18902.000,0.200,14962.000,0.300,3030.000,0.500,698.000,1.000,385.000,5.000,0
"07/07/06","18:14:01","AMMA06",37606.000,"cc",28313.522,6.00,2831.352,1,6,0.100,19317.000,0.200,14783.000,0.300,2708.000,0.500,499.000,1.000,299.000,5.000,0
"07/07/06","18:14:07","AMMA06",36676.000,"cc",28338.328,6.00,2833.833,1,6,0.100,18961.000,0.200,14466.000,0.300,2477.000,0.500,470.000,1.000,302.000,5.000,0
"07/07/06","18:14:13","AMMA06",41087.000,"cc",28307.742,6.00,2830.774,1,6,0.100,21202.000,0.200,15291.000,0.300,3273.000,0.500,844.000,1.000,476.000,5.000,1.000